Location: Gellin
(53.4498°N, 14.3207°E)
Time: 22:32:08
(UTC+00:00)

ERBS - Pass Details

Date: 03 March 2021
Orbit: 408 x 412 km, 57.0° (Epoch: 12 April)

Event Time Altitude Azimuth Distance (km) Brightness Sun altitude
Rises 17:22:13 0° 227° (SW) 2,345 6.9 -6.4°
Reaches altitude 10° 17:24:19 10° 222° (SW) 1,485 5.7 -6.7°
Maximum altitude 17:27:32 49° 146° (SSE) 543 2.6 -7.2°
Drops below altitude 10° 17:30:46 10° 70° (ENE) 1,490 4.4 -7.7°
Enters shadow 17:30:54 - 70° (ENE) 1,545 4.5 -7.7°
